Date,TemperatureHighF,TemperatureAvgF,TemperatureLowF,DewpointHighF,DewpointAvgF,DewpointLowF,HumidityHigh,HumidityAvg,HumidityLow,PressureMaxIn,PressureMinIn,WindSpeedMaxMPH,WindSpeedAvgMPH,GustSpeedMaxMPH,PrecipitationSumIn
2012-4-25,70.0,63.6,55.0,34.0,27.9,15.0,42,27,17,0.00,40.00,8,4,22,0.00
2012-4-26,60.0,48.1,34.0,41.0,29.4,14.0,93,55,16,0.00,40.00,12,7,27,0.52
2012-4-27,65.0,49.1,31.0,38.0,32.6,24.0,97,57,24,0.00,40.00,8,4,17,0.12
2012-4-28,67.0,52.1,39.0,31.0,24.2,-99.9,66,39,18,0.00,40.00,10,5,18,0.00
2012-4-29,69.0,53.6,33.0,34.0,21.8,16.0,65,34,15,0.00,40.00,9,4,18,0.00
2012-4-30,72.0,55.0,32.0,33.0,22.4,18.0,66,33,15,0.00,40.00,10,4,21,0.00
2012-5-1,65.0,56.8,47.0,33.0,29.8,25.0,48,36,23,0.00,40.00,9,6,22,0.00
2012-5-2,67.0,56.5,50.0,34.0,29.2,24.0,50,36,22,0.00,40.00,7,5,20,0.00
2012-5-3,70.0,59.5,51.0,33.0,27.7,22.0,44,31,21,0.00,40.00,9,6,22,0.00
2012-5-4,71.0,59.6,42.0,29.0,23.0,17.0,49,26,16,0.00,40.00,9,6,27,0.00
2012-5-5,69.0,57.8,40.0,25.0,17.0,-99.9,42,22,13,0.00,40.00,10,5,25,0.00
2012-5-6,66.0,51.7,29.0,31.0,14.9,7.0,62,27,12,0.00,40.00,7,3,19,0.00
2012-5-7,65.0,49.2,31.0,25.0,9.7,0.0,51,24,9,0.00,40.00,12,6,25,0.00
2012-5-8,67.0,49.4,29.0,29.0,14.5,3.0,51,27,11,0.00,40.00,10,4,22,0.00
2012-5-9,70.0,56.9,38.0,37.0,27.6,23.0,64,35,19,0.00,40.00,8,4,22,0.00
2012-5-10,77.0,64.2,44.0,35.0,23.7,18.0,53,24,12,0.00,40.00,12,6,22,0.00
2012-5-11,74.0,67.8,51.0,35.0,18.8,8.0,36,16,10,0.00,40.00,11,6,23,0.00
2012-5-12,77.0,66.4,51.0,35.0,17.5,-99.9,48,18,11,0.00,40.00,9,6,20,0.00
2012-5-13,78.0,68.6,46.0,37.0,11.0,-2.0,47,12,6,0.00,40.00,12,7,25,0.00
2012-5-14,80.0,64.4,32.0,24.0,12.3,6.0,44,15,6,0.00,40.00,8,5,20,0.00
2012-5-15,79.0,68.5,51.0,26.0,18.5,4.0,28,15,12,0.00,40.00,11,7,23,0.00
2012-5-16,77.0,65.0,44.0,26.0,17.0,10.0,29,17,9,0.00,40.00,13,7,26,0.00
2012-5-17,79.0,66.2,49.0,21.0,16.7,15.0,29,16,9,0.00,40.00,11,6,26,0.00
2012-5-18,71.0,62.4,42.0,28.0,20.8,12.0,33,21,12,0.00,40.00,12,8,30,0.00
2012-5-19,73.0,57.2,34.0,37.0,18.4,-99.9,67,28,11,0.00,40.00,9,5,20,0.00
2012-5-20,80.0,60.7,37.0,34.0,19.1,15.0,46,23,10,0.00,40.00,8,3,21,0.00
2012-5-21,83.0,67.4,40.0,37.0,18.3,11.0,43,19,8,0.00,40.00,8,3,20,0.00
2012-5-22,82.0,68.0,43.0,39.0,17.7,10.0,38,17,7,0.00,40.00,12,6,25,0.00
2012-5-23,78.0,68.3,60.0,29.0,22.8,6.0,26,18,10,0.00,40.00,12,7,31,0.00
2012-5-24,75.0,64.5,55.0,38.0,33.5,25.0,47,32,20,0.00,40.00,11,6,27,0.00
2012-5-25,69.0,58.6,49.0,39.0,32.0,25.0,57,37,27,0.00,40.00,14,11,36,0.00
2012-5-26,56.0,48.3,33.0,34.0,17.8,8.0,71,33,15,0.00,40.00,14,8,36,0.01
2012-5-27,66.0,47.7,24.0,23.0,14.1,6.0,68,32,10,0.00,40.00,7,4,18,0.01
2012-5-28,75.0,55.9,30.0,26.0,12.9,7.0,54,23,7,0.00,40.00,10,4,19,0.00
2012-5-29,77.0,60.4,33.0,31.0,11.4,7.0,45,18,7,0.00,40.00,10,4,23,0.00
2012-5-30,80.0,62.4,37.0,29.0,13.1,7.0,42,19,6,0.00,40.00,7,3,36,0.00
2012-5-31,85.0,67.3,45.0,34.0,17.9,13.0,35,18,8,0.00,40.00,7,5,19,0.00
2012-6-1,89.0,67.9,46.0,40.0,21.4,14.0,44,21,8,0.00,40.00,9,4,20,0.00
2012-6-2,83.0,70.4,52.0,35.0,11.8,-99.9,31,12,4,0.00,40.00,11,5,25,0.00
2012-6-3,83.0,68.9,47.0,33.0,15.8,3.0,35,15,5,0.00,40.00,8,4,20,0.00
2012-6-4,81.0,65.2,38.0,31.0,21.6,16.0,45,21,11,0.00,40.00,9,5,21,0.00
2012-6-5,76.0,64.1,58.0,36.0,21.2,-99.9,42,22,13,0.00,40.00,12,7,33,0.00
2012-6-6,79.0,63.6,40.0,24.0,19.2,14.0,49,22,10,0.00,40.00,9,5,26,0.00
2012-6-7,81.0,63.5,37.0,31.0,20.5,16.0,48,22,11,0.00,40.00,9,4,19,0.00
2012-6-8,81.0,65.3,45.0,32.0,21.2,15.0,40,21,10,0.00,40.00,10,5,24,0.00
2012-6-9,80.0,70.4,60.0,28.0,22.9,15.0,22,17,13,0.00,40.00,10,7,27,0.00
2012-6-10,79.0,67.8,52.0,36.0,29.6,19.0,49,25,15,0.00,40.00,12,5,27,0.00
2012-6-11,83.0,67.3,42.0,31.0,20.0,12.0,41,18,9,0.00,40.00,10,4,22,0.00
2012-6-12,84.0,69.3,45.0,30.0,13.8,8.0,35,14,6,0.00,40.00,11,4,19,0.00
2012-6-13,85.0,67.9,47.0,25.0,9.4,-99.9,42,13,7,0.00,40.00,9,5,22,0.00
2012-6-14,82.0,73.8,57.0,22.0,16.8,12.0,23,12,8,0.00,40.00,7,5,20,0.00
2012-6-15,80.0,68.8,46.0,31.0,16.2,8.0,40,15,8,0.00,40.00,8,4,21,0.00
2012-6-16,84.0,75.3,45.0,41.0,18.1,-99.9,49,13,9,0.00,40.00,9,6,21,0.00
2012-6-17,87.0,76.2,54.0,32.0,26.0,20.0,28,16,10,0.00,40.00,10,5,26,0.00
2012-6-18,86.0,76.6,59.0,32.0,20.4,15.0,21,13,7,0.00,40.00,15,8,26,0.00
2012-6-19,87.0,79.3,64.0,22.0,19.1,15.0,20,11,8,0.00,40.00,9,6,20,0.00
2012-6-20,91.0,83.3,63.0,32.0,16.9,9.0,27,9,5,0.00,40.00,8,5,18,0.00
2012-6-21,90.0,78.1,56.0,22.0,15.6,10.0,22,10,6,0.00,40.00,8,5,22,0.00
2012-6-22,86.0,78.9,67.0,35.0,25.6,20.0,25,14,10,0.00,40.00,10,8,29,0.00
2012-6-23,88.0,80.1,68.0,26.0,23.5,21.0,18,13,10,0.00,40.00,10,7,29,0.00
2012-6-24,88.0,78.2,60.0,37.0,31.0,24.0,36,19,11,0.00,40.00,10,6,24,0.00
2012-6-25,86.0,77.8,60.0,52.0,40.6,28.0,45,28,18,0.00,40.00,9,6,24,0.00
2012-6-26,82.0,77.0,62.0,46.0,41.5,34.0,38,28,24,0.00,40.00,8,6,23,0.00
2012-6-27,85.0,74.2,53.0,50.0,42.8,34.0,57,34,22,0.00,40.00,10,6,21,0.00
2012-6-28,88.0,78.1,62.0,50.0,41.1,35.0,49,28,15,0.00,40.00,12,5,25,0.00
2012-6-29,88.0,80.9,58.0,47.0,36.9,30.0,47,22,14,0.00,40.00,10,6,29,0.00
2012-6-30,88.0,79.1,58.0,33.0,27.3,18.0,37,16,10,0.00,40.00,10,6,22,0.00
2012-7-1,88.0,79.5,62.0,31.0,25.6,18.0,20,14,12,0.00,40.00,9,5,27,0.00
2012-7-2,88.0,78.8,62.0,38.0,32.3,21.0,26,19,14,0.00,40.00,10,5,24,0.00
2012-7-3,83.0,74.6,61.0,51.0,40.2,31.0,44,30,21,0.00,40.00,9,5,21,0.00
2012-7-4,71.0,67.0,62.0,53.0,50.4,48.0,70,56,44,0.00,40.00,8,6,16,0.00
2012-7-5,80.0,71.1,59.0,54.0,42.8,32.0,75,39,24,0.00,40.00,9,6,23,0.00
2012-7-6,83.0,75.3,56.0,43.0,33.9,27.0,49,24,14,0.00,40.00,8,5,16,0.00
2012-7-7,88.0,77.9,61.0,40.0,34.7,32.0,34,22,14,0.00,40.00,6,3,16,0.00
2012-7-8,89.0,81.4,74.0,45.0,39.1,36.0,35,23,17,0.00,40.00,8,5,20,0.00
2012-7-9,86.0,79.8,64.0,45.0,38.5,29.0,42,24,16,0.00,40.00,10,4,19,0.01
2012-7-10,90.0,82.2,64.0,44.0,39.2,37.0,39,22,16,0.00,40.00,8,5,16,0.01
2012-7-11,83.0,74.7,61.0,66.0,52.2,46.0,85,48,30,0.00,40.00,6,4,21,0.12
2012-7-12,80.0,71.6,65.0,67.0,56.7,48.0,90,62,36,0.00,40.00,7,4,14,0.76
2012-7-13,77.0,67.5,59.0,59.0,54.9,52.0,83,65,48,0.00,40.00,7,3,16,0.76
2012-7-14,68.0,61.8,55.0,60.0,56.6,53.0,97,84,64,0.00,40.00,7,2,15,0.56
2012-7-15,76.0,69.8,57.0,59.0,54.3,49.0,92,59,45,0.00,40.00,6,3,15,0.25
2012-7-16,75.0,69.8,54.0,56.0,49.5,41.0,98,51,31,0.00,40.00,8,4,18,0.07
2012-7-17,79.0,72.9,65.0,50.0,41.2,36.0,57,33,25,0.00,40.00,8,5,22,0.00
2012-7-18,83.0,76.0,62.0,41.0,32.3,23.0,46,22,14,0.00,40.00,9,6,19,0.00
2012-7-19,82.0,77.7,66.0,44.0,37.6,34.0,45,25,19,0.00,40.00,8,5,18,0.00
2012-7-20,86.0,77.0,60.0,58.0,47.3,42.0,92,41,22,0.00,40.00,9,6,20,0.14
2012-7-21,79.0,72.0,63.0,61.0,52.0,45.0,79,51,37,0.00,40.00,7,4,20,0.10
2012-7-22,86.0,77.1,62.0,52.0,46.9,40.0,68,37,22,0.00,40.00,11,7,23,0.01
2012-7-23,76.0,68.1,61.0,60.0,56.3,51.0,92,68,46,0.00,40.00,10,4,16,0.03
2012-7-24,75.0,69.0,58.0,59.0,55.2,51.0,97,63,46,0.00,40.00,8,4,18,0.11
2012-7-25,81.0,75.4,62.0,55.0,47.5,42.0,56,38,30,0.00,40.00,9,6,20,0.12
2012-7-26,85.0,73.4,57.0,65.0,50.9,44.0,95,52,24,0.00,40.00,8,5,19,0.08
2012-7-27,79.0,69.7,56.0,60.0,53.7,49.0,95,61,35,0.00,40.00,9,4,17,0.26
2012-7-28,81.0,75.8,68.0,55.0,50.0,46.0,60,41,30,0.00,40.00,9,4,16,0.24
2012-7-29,76.0,67.2,57.0,61.0,56.3,53.0,96,71,49,0.00,40.00,7,3,24,0.53
2012-7-30,77.0,70.9,65.0,59.0,57.0,55.0,77,63,47,0.00,40.00,6,4,20,0.03
2012-7-31,79.0,70.0,58.0,61.0,54.0,50.0,91,60,37,0.00,40.00,7,5,25,0.31
2012-8-1,76.0,70.8,60.0,55.0,50.8,44.0,85,51,34,0.00,40.00,6,4,14,0.49
2012-8-2,81.0,76.7,71.0,52.0,48.5,47.0,47,38,31,0.00,40.00,9,6,21,0.00
2012-8-3,81.0,74.8,60.0,60.0,51.7,43.0,86,46,30,0.00,40.00,5,3,16,0.24
2012-8-4,81.0,78.4,73.0,49.0,47.3,45.0,43,34,29,0.00,40.00,10,6,18,0.45
2012-8-5,79.0,73.0,67.0,55.0,50.2,43.0,56,45,31,0.00,40.00,7,5,15,0.00
2012-8-6,84.0,77.4,69.0,54.0,49.8,46.0,54,39,29,0.00,40.00,8,6,16,0.00
2012-8-7,83.0,78.7,69.0,65.0,51.6,47.0,82,41,28,0.00,40.00,9,5,21,0.02
2012-8-8,85.0,81.7,77.0,63.0,48.4,42.0,61,32,24,0.00,40.00,7,4,19,0.02
2012-8-9,86.0,79.9,72.0,52.0,48.4,43.0,45,34,27,0.00,40.00,8,5,19,0.00
2012-8-10,89.0,85.6,82.0,46.0,41.1,35.0,27,21,16,0.00,40.00,8,5,15,0.00
2012-8-11,87.0,80.0,60.0,61.0,45.5,39.0,82,33,21,0.00,40.00,8,5,16,0.12
2012-8-12,86.0,78.6,61.0,47.0,44.2,39.0,61,31,22,0.00,40.00,10,5,23,0.12
2012-8-13,87.0,81.5,73.0,50.0,43.0,41.0,39,26,21,0.00,40.00,14,7,23,0.00
2012-8-14,84.0,81.3,75.0,55.0,43.5,38.0,49,27,21,0.00,40.00,12,6,24,0.00
2012-8-15,86.0,79.6,73.0,52.0,43.5,38.0,48,29,20,0.00,40.00,8,6,21,0.00
2012-8-16,81.0,77.8,73.0,56.0,52.6,47.0,56,42,35,0.00,40.00,7,6,17,0.00
2012-8-17,73.0,66.9,58.0,66.0,59.1,55.0,96,77,59,0.00,40.00,7,3,17,0.38
2012-8-18,78.0,68.3,57.0,61.0,56.4,45.0,90,67,46,0.00,40.00,11,3,22,0.09
2012-8-19,81.0,73.5,64.0,67.0,58.8,51.0,89,62,42,0.00,40.00,8,2,17,0.10
2012-8-20,81.0,73.6,63.0,61.0,57.0,51.0,93,57,44,0.00,40.00,8,4,16,0.06
2012-8-21,75.0,70.1,62.0,60.0,57.0,52.0,78,64,53,0.00,40.00,6,3,19,0.05
2012-8-22,75.0,68.6,63.0,63.0,57.0,54.0,80,67,57,0.00,40.00,7,4,15,0.29
2012-8-23,70.0,64.7,59.0,59.0,55.6,50.0,89,73,57,0.00,40.00,7,5,19,0.61
2012-8-24,75.0,69.8,64.0,58.0,55.9,54.0,76,62,49,0.00,40.00,7,6,15,0.01
2012-8-25,79.0,71.6,61.0,61.0,52.5,43.0,80,53,30,0.00,40.00,8,4,14,0.00
2012-8-26,79.0,72.3,58.0,63.0,54.4,48.0,88,56,37,0.00,40.00,9,5,19,0.05
2012-8-27,83.0,76.8,68.0,59.0,51.5,43.0,72,43,29,0.00,40.00,7,4,14,0.05
2012-8-28,85.0,77.1,63.0,62.0,51.5,46.0,90,44,28,0.00,40.00,7,4,14,0.04
2012-8-29,78.0,75.6,71.0,64.0,52.1,44.0,78,45,32,0.00,40.00,6,3,17,0.04
2012-8-30,78.0,72.8,65.0,58.0,49.0,44.0,79,45,30,0.00,40.00,7,4,15,0.09
2012-8-31,79.0,73.2,63.0,62.0,55.9,51.0,83,56,40,0.00,40.00,6,4,17,0.09
2012-9-1,73.0,71.4,64.0,61.0,56.2,54.0,90,60,53,0.00,40.00,7,4,15,0.01
2012-9-2,80.0,72.1,63.0,58.0,54.5,52.0,83,56,38,0.00,40.00,7,4,24,0.00
2012-9-3,79.0,74.6,63.0,63.0,52.9,49.0,99,49,38,0.00,40.00,8,5,17,0.60
2012-9-4,78.0,69.2,58.0,62.0,55.4,49.0,93,65,41,0.00,40.00,9,5,21,0.12
2012-9-5,78.0,74.2,64.0,60.0,53.0,49.0,87,50,37,0.00,40.00,6,4,11,0.12
2012-9-6,78.0,74.8,68.0,61.0,53.6,52.0,75,49,40,0.00,40.00,8,5,17,0.00
2012-9-7,73.0,65.8,58.0,61.0,57.8,52.0,96,78,50,0.00,40.00,7,2,19,0.28
2012-9-8,79.0,73.3,54.0,58.0,45.6,38.0,81,40,25,0.00,40.00,7,4,16,0.01
2012-9-9,77.0,70.0,59.0,59.0,49.6,44.0,83,51,31,0.00,40.00,5,3,14,0.03
2012-9-10,70.0,65.6,60.0,59.0,54.3,52.0,82,68,54,0.00,40.00,6,4,15,0.02
2012-9-11,61.0,58.8,56.0,58.0,54.2,51.0,94,85,70,0.00,40.00,4,2,14,0.21
2012-9-12,68.0,62.8,54.0,54.0,50.1,45.0,99,65,49,0.00,40.00,8,3,15,0.10
2012-9-13,73.0,70.1,63.0,48.0,40.2,37.0,58,34,29,0.00,40.00,11,7,21,0.00
2012-9-14,65.0,51.2,44.0,38.0,36.2,32.0,76,60,29,0.00,40.00,5,1,11,0.00
2012-9-15,78.0,58.0,38.0,46.0,34.7,29.0,82,48,19,0.00,40.00,9,3,18,0.00
2012-9-16,77.0,58.2,40.0,49.0,34.3,26.0,80,48,17,0.00,40.00,8,3,17,0.00
2012-9-17,74.0,58.1,45.0,45.0,35.5,29.0,73,48,21,0.00,40.00,10,4,15,0.00
2012-9-18,78.0,58.3,41.0,45.0,32.3,27.0,72,45,17,0.00,40.00,7,2,14,0.00
2012-9-19,78.0,58.7,40.0,46.0,32.1,28.0,67,43,18,0.00,40.00,9,2,16,0.00
2012-9-20,80.0,61.2,44.0,47.0,34.2,29.0,71,43,18,0.00,40.00,6,2,15,0.00
2012-9-21,79.0,59.9,43.0,47.0,33.5,31.0,68,43,18,0.00,40.00,7,2,19,0.00
2012-9-22,80.0,60.7,45.0,47.0,33.8,-99.9,70,43,18,0.00,40.00,8,2,19,0.00
2012-9-23,78.0,59.6,47.0,53.0,37.2,33.0,66,47,20,0.00,40.00,6,2,17,0.00
2012-9-24,74.0,59.4,42.0,47.0,34.3,27.0,77,45,22,0.00,40.00,9,3,32,0.00
2012-9-25,73.0,62.2,48.0,36.0,32.0,27.0,51,33,20,0.00,40.00,11,4,21,0.00
2012-9-26,72.0,55.2,38.0,45.0,33.5,28.0,82,48,22,0.00,40.00,8,2,19,0.00
2012-9-27,74.0,56.0,38.0,45.0,32.5,26.0,80,47,19,0.00,40.00,7,2,16,0.00
2012-9-28,72.0,58.7,37.0,37.0,32.2,29.0,79,41,22,0.00,40.00,7,3,15,0.00
2012-9-29,76.0,57.3,42.0,45.0,30.1,24.0,74,40,15,0.00,40.00,9,3,19,0.00
2012-9-30,76.0,56.5,40.0,41.0,25.5,16.0,67,36,12,0.00,40.00,8,3,18,0.00
2012-10-1,79.0,57.5,40.0,33.0,25.9,18.0,58,35,14,0.00,40.00,7,3,19,0.00
2012-10-2,80.0,59.7,41.0,39.0,26.1,19.0,62,34,12,0.00,40.00,9,3,19,0.00
2012-10-3,79.0,60.8,43.0,38.0,24.8,22.0,51,29,12,0.00,40.00,11,4,21,0.00
2012-10-4,74.0,64.2,56.0,32.0,26.6,23.0,33,24,16,0.00,40.00,10,5,28,0.00
2012-10-5,73.0,58.5,39.0,33.0,25.2,20.0,58,30,17,0.00,40.00,8,3,18,0.00
2012-10-6,72.0,58.3,41.0,39.0,26.7,22.0,60,32,17,0.00,40.00,8,3,20,0.00
2012-10-7,72.0,54.6,35.0,34.0,25.8,19.0,69,37,17,0.00,40.00,8,2,16,0.00
2012-10-8,71.0,54.0,35.0,39.0,30.0,25.0,77,44,21,0.00,40.00,9,3,20,0.00
2012-10-9,71.0,56.7,41.0,50.0,35.4,30.0,97,49,23,0.00,40.00,7,3,20,0.00
2012-10-10,69.0,56.0,39.0,41.0,35.4,30.0,82,49,30,0.00,40.00,7,4,21,0.00
2012-10-11,60.0,51.4,40.0,49.0,40.6,30.0,91,69,44,0.00,40.00,12,6,25,0.36
2012-10-12,48.0,42.0,30.0,43.0,34.8,29.0,96,77,49,0.00,40.00,8,5,20,0.45
2012-10-13,61.0,42.6,29.0,40.0,34.1,28.0,97,76,40,0.00,40.00,6,3,15,0.01
2012-10-14,69.0,52.7,36.0,40.0,35.8,32.0,93,58,29,0.00,40.00,6,3,13,0.01
2012-10-15,72.0,51.1,33.0,45.0,30.9,24.0,88,55,17,0.00,40.00,8,3,16,0.00
2012-10-16,74.0,54.3,36.0,45.0,27.5,16.0,85,46,11,0.00,40.00,9,3,17,0.00
2012-10-17,71.0,53.2,39.0,40.0,27.9,16.0,76,43,13,0.00,40.00,7,4,15,0.00
2012-10-18,73.0,50.3,31.0,30.0,17.5,12.0,54,33,10,0.00,40.00,6,3,14,0.00
2012-10-19,76.0,51.1,33.0,37.0,20.7,12.0,63,38,10,0.00,40.00,6,2,13,0.00
2012-10-20,70.0,52.1,33.0,33.0,25.2,19.0,63,38,19,0.00,40.00,8,3,19,0.00
2012-10-21,64.0,55.3,50.0,43.0,36.2,30.0,77,50,35,0.00,40.00,8,5,19,0.00
2012-10-22,63.0,52.9,46.0,43.0,38.9,33.0,81,61,32,0.00,40.00,9,6,24,0.00
2012-10-23,63.0,52.3,47.0,41.0,36.2,25.0,77,57,25,0.00,40.00,9,6,25,0.00
2012-10-24,60.0,49.6,29.0,36.0,12.2,0.0,63,24,11,0.00,40.00,12,7,24,0.00
2012-10-25,58.0,38.1,22.0,19.0,13.1,9.0,61,39,19,0.00,40.00,10,3,19,0.00
2012-10-26,61.0,41.6,26.0,17.0,8.4,3.0,52,29,10,0.00,40.00,8,5,18,0.00
2012-10-27,68.0,45.6,25.0,17.0,8.3,3.0,48,27,9,0.00,40.00,7,3,13,0.00
2012-10-28,69.0,47.4,28.0,21.0,11.8,8.0,49,29,10,0.00,40.00,7,2,15,0.00
2012-10-29,69.0,45.8,29.0,25.0,11.2,5.0,52,30,8,0.00,40.00,8,2,17,0.00
2012-10-30,69.0,45.8,30.0,27.0,10.6,1.0,52,30,7,0.00,40.00,7,2,17,0.00
2012-10-31,72.0,46.8,30.0,20.0,11.2,7.0,45,28,10,0.00,40.00,7,2,15,0.00
2012-11-1,65.0,46.1,30.0,22.0,11.0,2.0,54,30,8,0.00,40.00,9,2,22,0.00
2012-11-2,63.0,45.8,30.0,25.0,17.3,9.0,59,35,15,0.00,40.00,8,2,20,0.00
2012-11-3,65.0,42.9,28.0,32.0,21.0,13.0,74,45,23,0.00,40.00,6,2,19,0.00
2012-11-4,69.0,46.1,28.0,31.0,17.4,10.0,77,40,11,0.00,40.00,7,2,14,0.00
2012-11-5,72.0,46.6,29.0,25.0,18.9,13.0,60,38,14,0.00,40.00,8,2,15,0.00
2012-11-6,72.0,46.8,31.0,29.0,19.4,13.0,63,40,14,0.00,40.00,7,2,13,0.00
2012-11-7,68.0,47.8,30.0,32.0,19.1,16.0,62,37,14,0.00,40.00,9,3,18,0.00
2012-11-8,60.0,48.0,33.0,40.0,27.5,18.0,84,49,23,0.00,40.00,11,6,30,0.06
2012-11-9,47.0,42.2,32.0,41.0,36.9,30.0,97,82,70,0.00,40.00,11,8,31,0.45
2012-11-10,35.0,26.1,16.0,30.0,15.5,8.0,92,68,32,0.00,40.00,9,3,20,0.29
2012-11-11,36.0,22.3,12.0,16.0,8.7,-2.0,87,62,21,0.00,40.00,7,2,15,0.01
2012-11-12,52.0,28.6,12.0,16.0,5.9,-19.0,78,50,9,0.00,40.00,11,3,21,0.01
2012-11-13,60.0,32.9,18.0,21.0,10.9,4.0,74,50,12,0.00,40.00,6,2,12,0.00
2012-11-14,61.0,38.5,20.0,26.0,11.8,-99.9,70,41,13,0.00,40.00,7,2,14,0.00
2012-11-15,57.0,40.2,24.0,29.0,13.6,5.0,74,41,13,0.00,40.00,8,3,22,0.00
2012-11-16,59.0,48.3,35.0,28.0,22.2,15.0,69,39,20,0.00,40.00,7,3,22,0.00
2012-11-17,56.0,46.1,31.0,39.0,30.4,21.0,83,55,40,0.00,40.00,9,4,25,0.00
2012-11-18,54.0,40.9,28.0,40.0,32.7,27.0,96,75,46,0.00,40.00,7,3,16,0.00
2012-11-19,58.0,36.1,21.0,35.0,22.6,14.0,95,67,18,0.00,40.00,7,2,14,0.00
2012-11-20,64.0,37.8,22.0,27.0,15.9,8.0,88,51,11,0.00,40.00,6,2,14,0.00
2012-11-21,61.0,39.6,23.0,26.0,19.6,15.0,75,51,18,0.00,40.00,7,3,15,0.00
2012-11-22,64.0,40.2,24.0,25.0,17.7,12.0,79,48,13,0.00,40.00,6,2,12,0.00
2012-11-23,65.0,45.3,26.0,25.0,17.9,15.0,68,38,15,0.00,40.00,9,4,17,0.00
2012-11-24,66.0,40.7,26.0,28.0,18.9,16.0,72,48,16,0.00,40.00,5,1,12,0.00
2012-11-25,60.0,39.1,23.0,30.0,18.6,12.0,81,50,19,0.00,40.00,8,2,18,0.00
2012-11-26,55.0,30.4,25.0,21.0,18.3,13.0,77,63,23,0.00,40.00,5,1,11,0.00
2012-11-27,59.0,38.3,22.0,27.0,18.7,13.0,77,51,17,0.00,40.00,6,2,15,0.00
2012-11-28,60.0,42.4,25.0,32.0,24.0,19.0,84,52,27,0.00,40.00,8,3,22,0.00
2012-11-29,56.0,44.9,30.0,36.0,26.6,14.0,79,51,27,0.00,40.00,9,4,22,0.00
2012-11-30,56.0,44.3,31.0,39.0,29.9,21.0,89,60,33,0.00,40.00,7,4,17,0.00
2012-12-1,55.0,44.1,30.0,34.0,27.3,21.0,81,53,36,0.00,40.00,8,3,16,0.00
2012-12-2,56.0,41.4,28.0,37.0,30.6,25.0,92,68,39,0.00,40.00,8,4,19,0.00
2012-12-3,55.0,42.7,27.0,38.0,34.1,26.0,95,73,49,0.00,40.00,8,3,21,0.00
2012-12-4,63.0,39.8,25.0,37.0,26.5,19.0,96,67,18,0.00,40.00,6,2,14,0.00
2012-12-5,63.0,43.6,29.0,25.0,18.9,8.0,72,44,11,0.00,40.00,8,2,20,0.00
2012-12-6,56.0,41.0,31.0,34.0,25.4,-99.9,83,59,38,0.00,40.00,8,3,15,0.00
2012-12-7,54.0,35.5,26.0,36.0,22.2,11.0,94,65,18,0.00,40.00,7,2,14,0.00
2012-12-8,51.0,28.9,20.0,21.0,17.6,9.0,92,70,20,0.00,40.00,10,2,17,0.00
2012-12-9,44.0,32.7,22.0,15.0,9.1,-3.0,53,38,24,0.00,40.00,13,6,26,0.00
2012-12-10,47.0,33.9,20.0,12.0,9.3,-1.0,64,39,20,0.00,40.00,7,4,17,0.00
2012-12-11,46.0,27.2,16.0,13.0,10.1,6.0,80,53,21,0.00,40.00,5,3,10,0.00
2012-12-12,48.0,39.7,22.0,18.0,10.4,8.0,55,31,21,0.00,40.00,9,6,22,0.00